TimeEST,TemperatureF,Dew PointF,Humidity,Sea Level PressureIn,VisibilityMPH,Wind Direction,Wind SpeedMPH,Gust SpeedMPH,PrecipitationIn,Events,Conditions,WindDirDegrees,DateUTC
12:53 AM,19.0,14.0,81,30.22,9.0,Calm,Calm,-,N/A,,Clear,0,2013-01-06 05:53:00
1:53 AM,19.9,14.0,78,30.25,10.0,Calm,Calm,-,N/A,,Clear,0,2013-01-06 06:53:00
2:53 AM,21.0,15.1,78,30.22,8.0,Calm,Calm,-,N/A,,Mostly Cloudy,0,2013-01-06 07:53:00
3:53 AM,21.0,15.1,78,30.18,9.0,Calm,Calm,-,N/A,,Overcast,0,2013-01-06 08:53:00
4:53 AM,21.9,16.0,78,30.16,3.0,Calm,Calm,-,0.00,Snow,Light Snow,0,2013-01-06 09:53:00
5:02 AM,21.2,15.8,80,30.09,2.0,Calm,Calm,-,0.00,Snow,Light Snow,0,2013-01-06 10:02:00
5:37 AM,21.2,17.6,86,30.08,6.0,Calm,Calm,-,0.00,,Overcast,0,2013-01-06 10:37:00
5:53 AM,21.9,18.0,85,30.13,3.0,Calm,Calm,-,0.00,Snow,Light Snow,0,2013-01-06 10:53:00
6:53 AM,21.9,19.0,89,30.11,3.0,Calm,Calm,-,0.00,Snow,Light Snow,0,2013-01-06 11:53:00
7:53 AM,24.1,21.0,88,30.09,3.0,SSW,3.5,-,0.00,,Overcast,210,2013-01-06 12:53:00
8:53 AM,24.1,21.0,88,30.09,5.0,Calm,Calm,-,N/A,,Clear,0,2013-01-06 13:53:00
9:53 AM,28.0,23.0,81,30.07,9.0,South,5.8,-,N/A,,Clear,170,2013-01-06 14:53:00
10:53 AM,32.0,24.1,73,30.04,10.0,South,5.8,-,N/A,,Clear,190,2013-01-06 15:53:00
11:53 AM,36.0,24.1,62,30.00,10.0,SW,8.1,-,N/A,,Clear,230,2013-01-06 16:53:00
12:53 PM,39.0,24.1,55,29.97,10.0,WSW,8.1,-,N/A,,Partly Cloudy,250,2013-01-06 17:53:00
1:53 PM,39.0,24.1,55,29.97,10.0,West,9.2,17.3,N/A,,Mostly Cloudy,270,2013-01-06 18:53:00
2:53 PM,39.0,25.0,57,29.96,10.0,West,5.8,-,N/A,,Clear,270,2013-01-06 19:53:00
3:53 PM,37.9,24.1,57,29.97,10.0,WSW,4.6,-,N/A,,Scattered Clouds,240,2013-01-06 20:53:00
4:53 PM,37.0,24.1,59,29.98,10.0,SW,3.5,-,N/A,,Scattered Clouds,230,2013-01-06 21:53:00
5:53 PM,36.0,25.0,64,29.97,10.0,South,4.6,-,N/A,,Overcast,180,2013-01-06 22:53:00
6:53 PM,36.0,25.0,64,29.98,8.0,SSW,3.5,-,N/A,,Overcast,210,2013-01-06 23:53:00
7:53 PM,34.0,25.0,70,29.99,10.0,Calm,Calm,-,N/A,,Overcast,0,2013-01-07 00:53:00
8:53 PM,34.0,25.0,70,29.99,9.0,Calm,Calm,-,N/A,,Overcast,0,2013-01-07 01:53:00
9:53 PM,32.0,25.0,75,29.98,9.0,Calm,Calm,-,N/A,,Overcast,0,2013-01-07 02:53:00
10:53 PM,32.0,25.0,75,29.98,10.0,Calm,Calm,-,N/A,,Overcast,0,2013-01-07 03:53:00
11:53 PM,28.0,23.0,81,29.98,10.0,Calm,Calm,-,N/A,,Clear,0,2013-01-07 04:53:00